Theta_e
303 302 302 301 301 301 302 302 302 303 302 303 304 305 306 306 308 309 312 311 312 314 315 315 314 315 315 315 314 315 315 316 316 317 317 316 316 315 314 313 314 313 312 311 310 308 307 306 304 303 302 301 300 300 300 300 301 300 300 299 299 298 298 299 299 298 295 293 294 295 294 295 295 295 295 296 296 295 295 295 294 294 295 295 295
301 300 300 300 299 300 300 300 300 300 301 302 302 303 304 305 306 307 310 310 310 311 313 314 315 314 314 314 314 314 314 313 313 314 314 315 314 313 313 312 312 310 310 310 309 308 306 305 303 302 300 300 300 300 301 299 300 300 300 297 299 297 297 298 298 296 293 292 291 291 291 292 293 293 293 294 295 295 295 295 294 294 294 294 294
299 298 299 298 299 299 299 299 299 299 300 301 301 302 303 303 304 306 307 309 309 309 311 312 314 315 314 314 314 313 314 314 313 313 313 312 311 310 311 311 310 308 308 308 307 307 306 304 303 301 300 299 299 299 299 299 300 299 298 296 295 297 297 299 297 296 293 295 295 292 289 289 291 291 293 293 293 294 295 294 294 294 294 294 294
296 297 297 297 298 297 297 297 298 298 298 299 299 300 301 302 303 304 306 307 308 308 309 311 313 314 314 313 312 312 311 310 311 310 309 308 307 308 309 309 309 308 307 307 306 306 305 304 302 301 300 299 299 298 298 299 299 299 298 297 296 293 294 295 298 296 296 295 290 291 291 291 289 288 289 291 293 293 293 293 293 292 293 294 294
295 296 296 296 296 296 296 297 297 297 297 297 298 299 300 301 303 304 304 305 306 306 308 309 311 311 310 309 309 308 307 307 306 306 306 306 306 306 306 307 307 307 307 306 305 304 304 303 302 300 299 299 298 298 298 299 298 299 298 297 296 294 293 294 296 296 300 299 296 292 291 290 290 292 289 288 291 291 292 292 292 292 292 292 292
296 295 295 295 295 296 296 296 296 296 296 297 298 298 299 300 301 302 303 304 304 305 306 306 307 307 307 306 304 304 304 304 304 304 305 304 304 306 306 306 306 306 306 305 304 303 303 303 302 300 299 298 298 297 298 298 298 298 298 298 297 297 296 293 294 296 299 302 302 302 300 293 293 292 290 286 289 291 291 292 292 292 293 292 293
296 296 295 295 294 295 295 295 295 295 296 298 298 298 298 298 299 300 301 302 303 303 305 304 305 305 305 305 305 304 304 306 307 307 306 306 306 305 304 304 304 304 305 305 304 303 303 302 302 300 299 298 298 297 297 298 298 298 298 297 297 297 297 293 293 293 297 298 300 299 298 295 300 291 290 290 284 288 290 290 291 292 292 292 292
295 294 294 294 294 294 293 294 294 295 296 297 297 297 297 297 297 298 299 300 301 302 303 304 303 304 304 304 304 303 303 303 305 304 305 304 303 303 303 302 303 303 303 303 304 303 302 302 301 301 299 299 298 297 297 298 299 299 299 297 298 297 297 294 293 293 292 293 296 296 296 297 297 302 301 293 291 285 287 291 291 291 291 291 292
294 294 293 293 293 294 294 294 295 295 295 295 296 297 297 298 297 297 297 298 299 300 301 302 302 302 302 302 302 303 303 303 304 304 303 303 302 302 302 301 301 302 302 302 302 302 301 301 301 300 299 298 297 297 297 298 298 298 297 297 297 296 296 296 295 293 292 292 294 294 295 294 294 298 301 301 294 289 289 287 287 290 290 290 291
294 293 294 293 294 294 295 295 295 295 295 296 296 296 296 297 297 296 296 297 297 298 299 300 301 301 301 301 301 301 302 302 303 302 302 303 301 301 301 301 300 300 300 301 301 301 301 300 300 300 300 299 297 297 297 297 298 298 297 296 296 296 296 296 296 294 294 293 294 294 292 293 294 295 295 296 299 297 290 287 288 287 285 288 290
293 293 293 293 294 294 294 294 294 295 295 295 295 295 295 296 296 296 296 296 297 297 298 298 299 300 299 299 299 299 300 301 300 301 301 301 301 300 300 301 300 299 299 299 300 300 300 300 299 300 300 299 298 297 296 296 297 298 298 297 296 296 295 296 296 296 295 293 295 293 293 293 293 291 291 294 294 292 293 290 289 289 287 287 288
292 292 292 293 293 293 293 293 293 294 294 294 294 295 294 294 295 295 295 296 296 296 296 296 297 297 298 298 298 298 298 298 298 298 299 299 300 300 300 300 299 300 299 298 298 299 299 299 299 299 299 299 298 298 297 296 297 297 297 296 295 295 295 294 295 295 295 293 294 294 294 295 295 294 294 295 294 293 294 292 290 289 289 289 290
291 291 291 291 291 291 292 292 293 292 292 293 293 294 293 293 293 293 293 295 295 296 295 295 295 295 296 296 297 297 297 298 298 298 299 299 299 299 299 299 299 299 298 297 298 298 298 298 298 297 297 298 298 298 297 297 296 296 295 295 294 293 293 294 293 294 295 293 294 294 294 295 294 296 297 296 295 296 294 292 291 290 288 288 288
290 291 290 291 291 291 292 292 292 292 292 292 293 293 292 292 292 292 292 294 294 295 295 295 295 295 295 295 295 296 296 296 296 296 297 297 298 298 298 298 298 299 299 298 298 299 298 298 298 298 298 298 298 298 297 297 296 295 295 294 293 293 293 293 293 293 294 295 295 294 293 294 295 296 296 297 295 294 292 291 289 290 291 287 287
290 290 290 290 290 291 291 291 291 292 292 292 292 292 292 291 291 291 291 292 293 293 294 294 294 294 294 294 294 294 294 295 296 296 296 296 297 297 297 298 297 298 298 299 300 299 298 298 298 297 297 297 297 297 297 296 296 295 294 294 293 294 293 292 292 292 292 294 294 294 294 294 294 295 296 297 297 295 295 293 289 286 287 286 284
289 289 289 289 290 290 291 291 291 291 291 292 291 292 292 291 291 291 290 291 292 292 292 293 293 293 293 293 293 294 293 294 294 295 295 296 296 296 296 297 297 297 298 299 300 299 298 297 297 296 296 296 296 296 295 295 295 294 293 293 293 294 292 292 292 292 292 292 293 294 293 293 294 295 296 297 297 297 296 295 291 289 286 283 284
288 288 288 289 289 290 290 290 291 291 291 291 291 292 291 291 290 290 290 290 291 291 292 292 292 292 292 292 292 292 292 292 292 293 294 294 295 295 295 296 296 296 297 298 298 298 298 296 296 295 295 295 295 295 294 294 294 294 293 292 292 292 292 292 292 291 291 292 292 292 292 293 293 294 294 295 296 296 296 295 293 291 290 286 282
288 288 289 289 289 289 290 290 290 290 291 291 291 291 292 291 290 289 289 289 290 290 290 291 291 291 291 291 292 292 291 292 292 292 293 293 293 293 294 294 294 296 296 297 297 296 296 295 295 295 295 295 294 294 294 294 293 293 293 292 292 292 291 291 291 291 290 291 291 291 291 292 292 293 293 293 293 295 294 295 294 293 292 288 286
287 287 288 288 288 288 289 289 290 290 291 291 291 291 290 291 290 289 288 288 289 289 289 290 290 291 291 291 290 290 290 291 291 292 292 292 292 292 292 293 293 294 294 295 295 295 295 295 294 294 294 294 294 294 293 293 293 292 292 291 292 292 291 290 290 290 290 290 289 289 290 291 291 292 292 292 292 293 294 294 293 293 292 291 289
287 287 287 287 288 288 288 289 289 290 290 291 291 290 289 289 289 288 288 288 288 288 288 288 289 289 290 290 290 290 290 289 289 290 290 290 291 291 291 291 292 292 293 293 293 293 293 293 293 293 293 293 293 293 293 292 292 292 291 291 291 291 290 289 290 290 290 289 289 288 289 290 290 291 291 291 291 291 292 292 292 292 291 291 291
286 287 287 287 287 288 289 289 290 290 290 290 290 290 289 289 288 288 287 286 286 287 287 287 287 287 288 288 288 289 288 289 288 289 288 289 290 290 291 291 291 291 292 291 292 292 292 293 293 292 292 292 292 292 292 292 291 291 291 290 290 290 289 289 289 289 289 289 288 288 288 289 289 289 290 290 290 290 290 290 291 291 290 290 289
286 287 287 287 287 287 288 289 289 289 289 289 290 289 288 288 288 288 288 287 286 286 287 287 287 287 287 287 287 288 288 287 287 287 286 288 288 289 289 290 290 290 291 291 291 291 291 292 292 292 292 291 291 291 291 291 290 290 289 290 290 289 288 288 288 288 288 289 288 287 287 287 288 288 289 289 289 289 289 289 289 289 288 289 289
286 286 286 286 286 287 287 287 287 287 287 288 288 287 287 287 287 287 287 286 287 287 288 287 286 286 286 286 286 286 286 285 285 286 285 286 287 288 289 288 289 289 290 290 290 290 290 290 290 291 291 291 291 291 291 290 290 289 289 289 289 289 288 288 287 288 288 288 287 287 286 287 288 287 288 288 288 288 288 288 287 288 287 287 287
286 286 286 286 286 286 286 286 286 286 286 287 287 287 287 287 286 287 286 285 285 286 287 287 287 286 286 285 285 286 285 285 284 285 285 286 286 286 287 288 288 288 288 289 289 289 289 289 289 289 290 290 290 290 290 290 289 289 289 288 288 288 288 288 287 287 288 287 287 286 286 286 286 286 286 286 287 287 287 287 287 287 287 286 286
284 284 285 285 285 285 285 286 286 286 287 287 287 287 287 286 286 286 286 286 286 286 286 287 286 285 285 285 286 286 285 285 285 285 285 285 285 286 286 286 286 286 287 287 287 288 288 288 288 288 288 289 289 289 289 289 289 289 288 288 288 288 288 288 288 288 288 287 287 286 286 286 285 285 285 285 286 286 286 286 286 286 286 285 285
283 283 284 284 284 285 285 285 285 285 286 286 287 287 287 287 287 287 286 286 286 286 285 286 286 285 285 285 285 286 286 286 285 285 285 285 285 285 286 286 286 286 287 287 287 287 287 287 287 287 287 288 288 289 289 289 289 289 288 288 288 287 287 287 287 287 288 288 287 287 286 286 285 284 285 285 285 285 286 285 285 285 285 285 284
283 284 284 285 284 284 285 285 285 285 286 286 286 286 286 286 286 286 287 286 286 286 285 285 285 285 284 284 284 285 286 286 286 285 285 285 285 285 285 286 286 285 285 286 286 286 287 286 286 287 287 287 287 288 288 288 288 288 288 287 287 287 287 287 287 287 287 287 287 287 286 286 285 285 285 285 285 285 285 285 285 285 285 284 283
284 284 284 283 284 285 285 285 285 285 286 286 286 286 286 286 286 286 286 286 287 285 284 284 284 284 284 284 284 285 286 286 286 286 285 284 284 284 285 286 286 286 286 285 285 285 286 287 287 286 287 287 287 287 287 288 288 287 287 287 287 286 286 286 286 286 286 286 286 286 286 286 286 286 285 285 285 284 285 284 285 285 284 284 283
283 283 284 284 284 284 285 285 285 286 285 286 286 286 287 286 286 286 286 285 286 285 284 283 283 283 284 284 284 284 286 286 285 285 284 284 283 283 284 285 285 285 286 286 286 286 285 285 286 286 287 287 287 287 287 287 287 287 287 286 286 286 286 286 285 285 285 286 286 286 286 286 286 286 286 286 286 286 285 284 284 284 284 284 283
283 283 284 284 284 285 285 285 285 285 285 285 285 286 286 286 285 285 285 285 285 284 283 283 283 283 283 283 283 283 284 284 284 283 283 282 282 282 283 283 284 285 285 285 285 285 285 285 285 285 286 287 287 287 287 288 289 287 286 286 286 286 285 285 285 285 285 285 285 286 286 286 285 285 285 286 287 287 287 286 285 284 284 284 283
283 283 283 284 284 285 285 285 285 285 285 285 286 286 285 285 285 285 285 285 285 283 283 282 282 283 283 283 282 282 283 283 283 282 281 281 280 280 280 282 283 284 284 285 284 284 284 285 285 285 285 286 286 287 288 290 290 290 288 287 286 286 285 285 285 284 284 284 284 285 285 285 285 285 285 286 287 288 288 288 288 287 286 285 283
284 283 284 284 284 284 284 284 285 285 285 285 285 285 284 284 284 284 284 285 284 283 282 282 282 282 282 282 281 281 281 282 282 281 280 280 279 279 279 280 282 283 284 284 283 284 284 284 284 284 284 285 286 287 289 289 290 290 290 287 286 286 286 286 285 285 285 285 284 284 285 285 285 285 285 284 285 287 287 288 288 288 287 288 287
284 284 284 284 284 284 285 285 285 285 285 286 286 284 284 284 284 284 284 283 283 282 282 281 281 281 281 281 281 280 280 280 281 280 280 279 278 278 278 278 279 281 283 283 283 283 283 284 284 284 284 284 285 287 288 289 289 290 290 289 287 286 286 285 285 285 285 285 285 284 284 285 285 285 285 284 284 284 286 287 287 287 287 288 288
284 284 284 284 285 285 285 285 285 286 286 286 285 284 284 284 284 284 283 282 282 282 281 281 281 281 280 281 280 280 279 280 280 279 279 278 277 277 277 277 278 279 281 282 282 282 282 282 283 283 283 283 284 286 288 288 288 289 289 289 287 286 286 286 285 285 285 285 285 284 284 284 285 284 284 284 284 284 283 284 284 284 284 285 287
284 284 284 284 284 285 285 285 285 285 285 285 284 284 284 283 283 282 282 281 281 281 280 280 280 280 280 280 279 279 279 279 279 278 278 277 276 276 276 276 276 277 278 279 280 280 281 281 281 282 282 282 283 286 287 287 287 288 289 289 287 287 286 286 286 286 285 285 285 285 285 284 284 284 284 284 283 283 283 283 283 283 283 283 283
284 284 284 284 285 285 285 285 286 285 284 284 283 284 282 282 282 281 280 280 280 279 279 279 279 279 279 279 279 278 278 278 278 277 276 275 275 275 274 275 275 276 276 278 278 279 279 280 280 280 280 280 282 284 285 287 287 287 288 287 286 286 286 286 286 286 286 286 285 285 285 284 284 284 285 286 286 283 283 282 282 282 282 282 282
285 285 285 286 286 286 286 285 285 284 283 283 283 283 281 281 280 279 279 279 279 278 278 278 278 278 278 278 278 277 277 277 277 276 275 274 274 273 274 274 273 273 274 275 276 277 278 278 278 279 279 280 281 283 285 286 286 287 287 285 285 285 285 285 285 286 286 286 286 286 285 284 284 284 285 287 287 286 282 281 281 281 281 281 281
285 286 286 286 286 286 285 285 283 283 283 283 283 281 280 279 278 278 277 277 277 277 277 277 277 277 277 277 277 276 275 275 275 274 273 273 273 273 273 273 272 272 272 273 275 276 277 277 277 278 279 278 279 281 283 284 285 286 286 284 284 284 284 284 285 286 286 286 286 285 285 285 284 284 286 288 288 285 282 281 281 280 280 280 280
285 285 285 286 286 285 284 283 283 282 283 282 281 280 278 277 277 276 276 275 275 276 276 275 275 276 276 275 275 275 274 273 273 273 272 272 271 271 272 272 272 272 272 273 274 275 275 275 275 275 277 277 277 279 282 283 284 284 284 283 284 283 283 283 284 284 286 286 286 286 286 286 285 285 286 288 288 286 282 281 281 280 279 279 280
285 285 285 285 284 284 283 282 282 281 282 281 280 278 277 275 275 275 274 274 274 274 275 274 274 274 274 273 273 272 272 272 271 271 271 271 271 271 271 271 271 271 271 271 272 272 272 272 273 273 273 274 274 275 278 281 283 283 284 283 283 283 282 282 283 284 284 285 286 286 286 288 288 287 287 287 287 287 283 282 281 280 279 279 281
285 285 284 283 283 283 282 281 281 281 279 278 277 276 274 274 273 273 272 273 273 273 272 272 272 272 271 271 270 270 270 270 270 269 269 269 269 270 270 269 269 269 269 270 270 270 270 270 271 271 271 271 273 274 276 280 282 283 284 284 282 282 282 282 282 283 284 284 284 285 286 287 288 288 287 286 287 287 286 282 281 280 281 281 282
285 284 283 282 282 281 280 280 280 278 277 276 275 273 273 272 271 270 271 271 271 271 270 270 269 269 268 267 267 267 267 267 267 267 267 267 267 268 268 268 268 268 267 267 268 268 268 268 269 269 269 270 273 275 274 278 280 282 283 284 282 282 283 282 282 282 283 284 284 285 285 286 287 288 287 286 287 287 287 283 282 284 285 284 281
282 282 282 281 279 279 278 277 277 276 275 274 273 271 270 270 269 269 269 269 269 268 267 267 266 265 265 265 265 265 265 265 265 265 265 264 265 265 265 266 266 266 266 266 266 266 266 266 267 269 270 271 272 274 277 277 280 281 282 283 284 283 284 284 282 281 282 283 285 285 285 285 286 286 287 287 287 287 286 285 285 285 285 284 283
282 281 279 277 276 276 275 274 274 274 273 272 271 269 269 268 267 268 268 267 266 266 265 264 263 263 263 263 263 263 263 263 263 263 263 263 263 263 264 264 264 264 264 264 265 265 266 266 266 267 269 270 272 273 276 278 279 281 281 283 284 284 285 283 283 282 283 283 284 285 285 286 286 286 286 287 286 286 285 286 286 285 285 283 281
279 278 276 274 273 272 271 271 272 271 271 270 269 267 266 265 266 266 265 264 264 263 262 262 261 261 261 262 262 262 262 262 262 262 262 262 262 262 262 263 263 263 263 263 264 265 265 265 266 266 267 269 271 273 274 277 279 281 282 283 283 284 285 285 283 283 283 283 285 286 286 286 285 285 285 286 286 286 286 286 286 285 284 281 280
277 275 273 271 271 270 269 269 269 270 269 268 267 266 263 264 265 264 264 263 262 261 261 260 260 261 261 261 261 261 261 262 262 262 262 262 261 261 261 261 262 262 262 262 263 263 264 264 265 265 267 268 270 271 273 275 278 279 280 282 283 283 283 284 284 283 284 285 286 286 286 286 284 284 284 283 283 283 285 285 285 285 282 280 279
273 273 271 270 269 267 267 267 266 267 267 266 265 264 264 264 263 263 263 262 261 260 260 260 260 260 260 260 260 260 261 261 261 261 262 262 262 261 261 261 261 261 261 261 262 263 263 263 263 264 266 267 268 270 272 274 276 277 278 280 280 280 282 283 282 282 283 283 284 285 284 284 283 284 284 284 283 284 283 283 283 283 282 280 279
272 270 269 268 267 266 265 265 264 265 264 264 263 262 262 262 262 262 262 261 260 260 259 259 259 260 260 260 260 261 260 260 261 261 260 261 261 261 260 260 260 260 260 260 261 261 261 262 262 263 264 265 266 268 270 272 275 277 278 279 279 279 279 279 279 280 281 282 283 284 284 283 282 281 282 282 282 282 281 281 282 282 282 280 279
269 268 268 266 265 264 264 263 263 263 262 262 261 261 262 261 262 261 261 260 259 260 259 259 259 259 259 260 260 260 260 260 260 260 260 261 260 260 260 261 262 262 261 260 260 260 261 262 262 262 263 263 265 266 268 273 273 276 276 277 278 278 278 278 280 281 281 281 281 281 280 280 279 279 279 279 279 280 280 280 281 281 281 279 277
268 267 266 265 264 263 262 261 261 262 261 261 260 261 261 261 261 261 260 259 259 259 259 259 259 259 259 259 259 259 259 259 259 259 259 260 263 266 265 262 262 266 268 269 269 264 264 264 264 264 265 264 264 266 271 273 274 276 277 279 280 281 281 280 281 282 281 279 279 279 278 278 278 278 277 277 278 278 278 279 279 281 280 277 276
265 264 264 263 262 261 260 260 260 260 260 260 259 260 260 260 260 261 260 259 259 259 258 258 258 258 259 259 258 258 258 259 259 259 259 259 259 261 266 268 268 268 268 269 270 270 271 271 267 265 267 272 272 273 274 274 275 276 277 277 278 279 281 282 282 280 279 278 278 276 277 277 277 277 276 277 277 278 278 278 278 278 278 276 276
Wind_Speed
13 14 15 15 15 14 13 12 13 14 14 15 13 13 12 9 7 4 2 3 4 4 5 6 6 6 6 7 7 6 7 7 6 7 6 6 6 6 6 7 7 8 8 8 9 8 7 6 6 6 7 7 7 8 9 9 9 9 8 8 10 8 6 7 8 8 8 6 4 4 4 3 3 2 4 3 3 3 3 3 3 3 3 3 2
14 14 15 14 14 15 13 12 14 15 14 14 14 13 12 12 9 7 4 2 3 4 3 4 5 5 5 5 5 5 5 6 6 5 6 4 5 5 6 7 7 8 8 8 8 8 8 7 7 7 8 7 7 7 8 7 9 9 8 7 6 10 8 9 9 10 6 7 7 5 4 4 3 2 3 4 3 3 3 3 3 3 3 3 3
14 14 14 14 15 16 14 13 13 13 13 14 13 14 13 12 11 9 7 4 3 3 3 3 4 4 4 3 3 3 3 3 4 4 4 5 3 4 5 5 7 7 8 9 8 9 8 8 7 7 8 7 7 8 8 9 9 11 11 9 8 6 6 8 11 10 7 7 6 5 4 4 3 3 4 5 5 4 3 4 4 4 3 3 3
16 16 16 15 15 15 15 15 14 12 13 14 15 15 12 13 12 10 8 6 5 4 4 4 3 1 1 1 1 1 0 2 3 3 4 5 5 5 5 5 6 6 8 9 7 8 9 9 7 7 9 8 7 8 9 9 9 9 10 11 10 9 7 8 10 11 7 11 7 6 5 4 3 7 7 6 7 6 6 5 4 4 4 3 3
13 14 15 15 17 18 17 16 14 14 15 16 16 15 12 15 14 12 9 9 8 8 6 5 1 0 2 3 2 2 1 1 2 4 5 5 6 6 8 8 9 8 9 10 9 9 9 9 8 8 9 9 8 8 8 9 10 10 11 11 12 10 9 6 9 11 8 9 6 6 3 4 7 5 9 5 7 6 6 6 5 6 5 5 4
13 14 13 13 15 16 18 18 18 16 17 16 14 15 16 15 15 14 11 10 10 9 8 6 4 4 3 2 3 3 4 4 5 5 4 5 6 5 6 8 9 9 9 10 10 10 10 10 9 8 9 8 9 9 8 8 10 11 12 11 12 11 8 8 7 9 9 6 4 1 1 3 5 8 8 4 5 6 6 6 6 6 5 5 4
10 10 11 14 16 16 17 17 16 17 16 14 14 15 16 15 15 15 12 11 11 10 8 6 5 5 5 4 4 5 5 4 3 3 3 2 2 4 5 6 7 8 8 9 10 10 10 10 10 9 9 9 9 9 10 10 9 11 10 11 10 10 9 10 12 9 3 4 4 3 2 2 1 11 6 7 4 5 6 7 7 7 6 6 5
8 10 11 12 14 15 16 16 16 16 15 15 14 15 17 17 16 15 12 12 12 11 9 8 6 5 4 4 4 5 5 6 5 3 2 1 1 3 3 4 6 7 8 9 9 9 10 10 10 10 10 10 9 10 10 8 6 8 10 12 9 11 12 11 11 10 11 9 8 4 2 2 3 3 4 9 6 8 7 6 6 7 6 6 6
11 9 10 13 15 16 15 16 15 15 15 15 14 14 14 15 16 15 13 12 12 14 12 10 8 6 5 5 6 5 5 5 5 4 3 2 3 3 3 4 5 7 8 8 8 9 9 10 10 10 10 10 10 10 10 9 10 10 10 11 12 11 10 10 9 11 13 12 8 6 5 5 4 5 2 4 4 5 6 10 8 6 6 6 7
9 9 10 13 14 14 13 13 15 13 12 13 13 13 14 14 16 17 16 12 12 13 12 11 9 7 7 8 8 7 7 7 6 6 4 3 3 3 4 4 4 5 7 8 8 9 10 10 10 10 10 10 9 10 11 11 11 11 12 13 13 12 10 11 11 10 12 11 12 9 10 6 4 4 4 6 4 6 7 10 10 11 10 8 7
8 8 10 13 13 13 12 13 13 13 12 13 12 12 13 14 15 17 16 12 13 13 12 10 9 9 9 10 10 9 9 8 7 7 7 6 5 4 4 4 4 4 4 6 8 8 9 9 9 9 10 9 8 9 11 10 9 10 10 13 13 13 11 11 11 9 9 11 10 10 11 12 12 11 10 8 7 4 3 7 8 9 8 8 9
7 8 12 12 12 12 11 12 13 13 13 13 12 12 12 13 14 15 16 15 13 12 12 10 9 10 11 11 10 9 8 7 8 8 8 8 7 6 5 4 4 4 4 5 6 8 7 8 8 9 9 10 11 9 9 9 8 8 9 10 12 13 12 10 11 11 10 10 11 10 11 11 10 9 8 8 8 6 6 7 7 7 5 5 5
9 11 11 10 11 10 12 11 11 12 12 12 13 12 12 13 14 15 15 15 13 13 13 13 13 13 12 11 9 8 8 8 8 7 7 7 7 7 6 6 4 4 4 5 6 7 7 8 8 9 9 9 10 9 9 11 10 9 10 11 12 13 14 13 12 13 11 12 11 11 10 10 10 9 6 6 6 5 6 4 4 8 5 6 6
10 10 10 10 10 10 10 10 11 11 12 12 12 12 11 12 14 15 15 14 14 14 15 15 15 14 13 11 10 8 8 7 7 7 8 7 7 7 7 6 6 7 6 6 5 6 7 8 8 8 9 9 9 9 9 10 10 9 10 11 12 12 12 14 13 13 12 11 9 10 11 10 10 9 9 6 8 6 5 7 7 3 2 3 4
8 9 9 10 10 10 9 10 10 10 12 11 11 12 11 12 13 15 15 15 15 15 13 15 13 14 13 12 11 9 9 8 6 6 6 7 7 7 7 7 7 7 7 6 5 5 6 7 7 8 7 8 8 8 8 9 9 9 9 10 10 10 12 12 13 14 14 14 11 10 10 10 9 9 9 8 8 9 7 7 10 8 3 3 4
8 8 8 10 9 9 9 9 10 10 11 11 12 11 12 12 13 13 14 13 13 14 14 13 13 12 14 14 13 11 9 9 7 7 8 7 7 7 7 7 7 7 7 7 5 4 4 5 6 7 7 7 8 8 7 8 9 10 10 10 11 8 11 13 13 13 15 15 14 12 10 11 10 9 9 8 7 7 7 7 10 11 10 5 4
7 8 8 9 9 10 9 9 9 10 10 11 11 11 13 12 12 13 13 13 13 13 12 12 12 12 13 13 13 12 12 11 9 10 10 9 8 7 7 7 7 7 6 6 5 3 3 4 5 6 7 7 7 8 8 8 9 9 11 11 11 10 11 13 12 13 13 13 13 15 13 11 11 10 8 8 7 6 6 6 10 11 10 9 7
7 8 8 8 9 9 9 9 10 10 10 11 11 10 10 10 12 12 12 13 12 12 12 11 11 10 10 12 12 12 11 11 10 10 9 8 8 7 7 6 6 6 6 5 5 5 5 6 6 6 6 7 8 8 8 9 9 9 10 11 11 9 11 11 11 12 12 12 13 13 13 12 11 10 10 9 8 7 7 6 8 9 9 10 9
5 6 7 7 7 8 8 9 9 9 9 10 9 10 10 9 10 10 11 11 11 9 9 8 9 8 8 9 10 10 10 10 9 10 9 8 8 7 6 7 6 6 5 5 5 5 5 5 5 6 7 7 8 8 8 8 9 10 10 9 10 10 10 12 12 11 12 11 13 15 14 14 12 11 10 9 8 8 7 6 6 8 8 8 8
3 3 4 4 4 5 6 7 8 9 8 8 8 8 10 9 10 9 9 9 10 11 10 9 8 8 8 8 8 8 9 9 10 9 9 10 9 9 8 7 7 6 5 5 5 6 6 6 6 6 7 7 7 8 8 9 8 10 9 9 10 11 12 13 12 11 10 11 14 14 15 14 13 11 10 10 9 9 8 7 7 6 7 8 7
3 3 3 4 4 4 3 3 3 3 4 6 7 7 8 8 8 8 9 8 9 8 8 8 8 8 8 8 8 7 9 8 8 9 9 9 10 9 9 8 8 7 7 6 6 6 6 6 6 6 6 7 7 8 7 8 9 9 10 11 10 11 13 12 12 13 12 12 14 14 15 15 13 12 12 10 10 10 8 7 7 6 6 6 6
3 4 4 3 4 4 4 4 4 4 4 4 4 4 6 7 7 6 5 6 7 8 8 6 5 5 6 8 8 6 6 6 7 7 8 8 8 8 8 9 8 8 8 8 8 7 6 6 6 7 7 7 8 8 8 8 9 9 10 8 9 11 12 13 13 14 13 11 12 14 15 14 12 14 12 12 11 10 10 10 9 8 8 7 6
4 4 4 4 4 3 3 4 4 4 4 4 3 4 4 5 5 5 6 7 7 7 7 6 6 6 6 5 4 5 6 6 6 5 7 8 7 7 8 8 9 9 9 9 8 8 8 7 7 7 7 7 7 8 8 8 9 10 11 10 10 11 12 13 13 15 14 12 13 15 16 13 10 13 14 13 10 11 11 12 12 9 10 9 8
4 3 3 3 3 3 2 3 3 4 3 4 4 2 2 2 2 2 3 4 4 5 6 6 7 7 5 4 6 6 6 6 7 7 8 9 7 6 6 7 8 8 9 9 9 9 8 7 7 7 8 7 8 9 9 8 10 10 10 11 10 12 13 13 13 14 13 13 14 15 15 14 12 14 14 14 13 12 12 12 12 10 11 10 9
4 4 4 4 5 5 5 5 5 5 4 4 4 5 5 4 4 5 4 4 4 4 6 6 6 7 7 7 8 6 6 7 7 7 7 8 8 9 9 9 8 8 8 8 8 8 8 8 7 8 8 9 9 9 9 10 10 9 10 11 11 11 12 14 15 15 14 14 14 16 15 12 12 15 15 14 14 15 12 12 12 11 11 9 7
3 3 4 5 5 5 6 7 7 7 8 8 9 9 8 8 8 7 7 7 7 7 8 8 8 8 8 8 8 8 8 7 6 6 7 8 8 7 7 8 8 9 9 8 7 8 7 8 8 7 8 9 9 9 10 10 10 10 10 10 11 11 12 12 13 14 14 14 14 16 15 12 14 17 17 15 14 16 14 12 14 12 11 9 9
4 4 3 2 3 3 3 4 4 5 6 6 7 9 9 9 11 10 9 8 8 8 9 9 9 9 9 9 9 9 8 8 8 8 7 7 7 8 9 9 8 7 8 7 8 8 7 6 8 8 8 8 8 9 10 10 10 11 11 11 11 12 12 12 12 12 12 14 15 15 15 14 16 18 17 16 15 14 12 15 16 15 13 11 11
5 5 5 4 4 4 4 4 4 4 5 5 6 6 7 7 8 8 9 8 6 8 9 9 9 9 8 8 9 9 9 8 8 8 9 9 9 9 8 7 7 9 9 9 9 9 8 7 7 7 8 7 8 8 9 9 10 10 11 12 12 12 13 13 14 13 13 13 15 16 15 15 17 17 16 15 14 14 12 14 14 13 13 14 13
6 5 5 5 5 5 5 5 5 5 6 6 6 6 6 6 7 8 8 8 8 8 9 10 10 10 9 9 8 8 7 7 7 8 9 9 9 10 10 9 8 8 7 8 8 8 9 10 8 8 8 7 7 7 7 8 9 10 9 11 12 12 13 14 14 14 14 15 15 14 14 15 17 19 20 18 16 15 12 13 14 13 13 14 14
5 5 4 4 4 5 5 5 5 6 6 6 6 6 6 7 7 7 7 8 7 8 9 9 9 9 9 9 10 9 8 7 7 6 8 9 10 10 10 10 10 10 9 9 9 9 9 9 10 9 9 7 6 6 9 15 14 11 11 10 10 11 11 12 13 14 14 15 17 16 15 20 21 22 22 22 22 21 20 16 14 13 15 14 14
5 4 4 4 5 5 5 5 5 5 6 6 6 6 6 7 8 7 8 7 7 8 8 8 10 9 9 9 9 9 9 10 8 7 5 4 8 8 10 11 11 10 11 11 9 9 9 9 10 9 9 8 7 7 12 13 14 18 14 12 11 11 11 12 13 14 14 14 14 15 16 18 19 20 21 24 23 23 22 23 22 18 18 17 16
6 5 5 5 5 6 5 5 5 5 6 6 6 6 6 7 7 7 7 7 7 7 8 9 9 9 10 10 9 9 10 10 8 8 7 7 7 8 10 11 10 11 12 11 12 12 10 9 9 10 11 9 8 10 13 14 16 17 16 12 10 10 11 12 13 14 14 14 15 14 13 12 14 18 17 16 21 26 27 25 23 21 21 23 22
6 6 6 6 6 6 6 6 6 6 6 7 6 7 7 7 7 7 7 8 8 8 9 9 9 9 10 9 9 8 9 9 8 7 7 9 10 11 11 10 13 12 10 11 15 13 12 12 11 10 10 10 11 12 13 15 16 16 17 16 10 11 11 12 14 14 14 14 14 14 14 13 12 19 18 16 16 18 23 28 25 24 24 25 27
7 7 7 7 6 6 7 7 7 7 7 7 7 7 8 7 7 8 8 8 9 9 9 10 10 9 10 10 10 8 9 10 9 8 6 7 10 11 12 10 10 12 11 12 12 13 14 13 11 11 12 11 11 12 16 16 17 17 18 16 11 12 12 13 14 14 14 15 15 14 14 14 13 13 13 16 16 16 15 15 16 16 17 21 25
9 9 9 8 8 8 9 8 7 7 7 7 8 8 8 8 8 9 8 9 9 10 10 10 10 10 9 7 10 8 10 9 9 9 9 10 10 10 12 11 10 12 13 13 13 13 13 13 13 12 12 14 12 16 16 18 19 19 19 16 10 11 11 12 14 15 15 16 16 15 16 16 14 12 13 16 15 15 14 13 13 15 17 17 16
9 10 10 10 10 10 10 8 6 6 7 7 8 8 8 8 8 9 10 10 10 9 11 10 10 10 10 10 9 9 10 11 10 9 10 11 10 12 14 11 10 11 12 14 14 13 14 15 14 14 14 15 14 18 18 18 17 18 20 11 9 11 11 12 14 15 15 14 15 15 16 17 17 15 15 21 19 14 12 14 16 17 16 14 15
11 11 11 11 11 9 6 6 6 6 7 8 8 7 8 9 9 9 8 8 9 9 11 11 10 12 12 11 11 10 11 11 11 13 13 12 14 16 14 10 12 12 13 14 14 15 13 14 16 15 15 15 14 15 18 18 17 19 15 9 10 10 11 12 14 14 14 15 15 16 15 16 17 17 18 16 18 15 13 15 17 17 15 14 15
10 10 10 10 8 4 5 5 8 9 8 7 8 8 8 9 8 10 9 11 9 11 11 11 12 11 11 11 11 11 12 12 12 12 14 14 14 12 14 11 12 13 15 16 14 15 14 14 15 16 15 15 16 17 20 20 20 19 16 11 10 11 12 13 13 13 13 13 16 23 20 17 18 18 18 18 22 19 16 17 17 18 17 17 17
9 9 10 9 5 5 6 7 8 9 9 9 9 8 7 8 10 11 10 9 10 12 12 11 13 12 12 11 10 11 12 13 15 15 13 15 14 13 13 13 14 14 15 14 14 15 15 15 15 16 21 20 18 20 24 24 24 22 17 11 11 11 12 13 12 13 13 13 14 16 23 22 20 19 16 19 23 21 16 16 17 16 18 20 17
9 9 6 3 5 7 9 8 8 9 10 9 8 7 5 8 10 10 9 10 11 11 12 13 13 12 11 10 11 14 15 14 15 15 15 15 14 15 16 14 13 14 15 14 14 15 17 16 15 15 16 17 19 20 23 29 26 26 24 15 11 11 12 13 13 13 13 13 14 14 16 23 27 26 19 22 24 25 18 15 15 16 18 22 12
8 6 5 5 6 6 7 8 8 9 8 8 7 6 8 9 10 10 9 11 11 12 12 13 13 13 12 13 13 14 16 16 15 16 16 16 15 14 15 16 16 15 15 16 17 17 18 19 17 17 17 20 19 21 23 30 30 28 28 22 13 14 13 13 13 13 12 13 13 13 12 17 23 24 22 24 25 27 26 17 17 17 20 15 12
5 4 4 4 6 6 8 8 7 7 7 7 6 7 9 10 9 9 10 11 12 13 13 13 13 13 14 15 15 15 16 15 15 15 17 17 16 16 16 16 16 16 18 19 19 17 16 19 19 21 21 22 22 28 23 30 34 32 30 29 17 14 15 14 14 13 13 13 13 12 12 14 20 24 24 24 27 26 29 19 18 22 21 19 18
4 5 5 5 6 7 8 8 7 7 7 6 6 8 8 8 9 10 11 12 13 13 13 13 14 14 15 17 16 16 16 14 15 16 16 18 18 17 17 17 18 19 19 21 21 20 19 19 18 17 16 18 19 19 28 25 30 33 32 31 30 21 23 18 14 15 15 14 12 13 13 16 18 24 25 25 26 29 25 20 24 25 21 25 20
5 4 5 6 6 7 8 8 7 6 5 4 5 8 8 8 11 11 12 12 12 12 13 14 14 14 15 15 15 17 17 14 16 15 16 17 17 16 16 16 17 17 18 18 17 16 16 17 19 18 16 16 17 17 21 28 27 32 33 32 31 31 29 19 15 15 14 14 13 13 13 18 19 22 25 25 25 26 20 26 28 26 24 24 16
5 4 6 5 6 9 10 11 7 4 6 5 4 6 9 11 12 11 11 12 12 13 13 14 15 16 15 15 14 14 14 14 15 15 16 16 17 16 16 15 15 16 16 17 17 16 16 17 17 18 17 16 15 16 16 20 29 27 30 32 32 32 30 29 19 15 15 14 16 21 20 18 19 22 25 26 24 27 31 27 30 31 24 15 16
5 5 5 5 6 7 8 11 11 6 7 4 4 5 10 13 12 11 12 12 13 14 15 16 16 15 15 14 16 15 15 15 14 12 14 14 15 16 15 15 14 15 16 17 17 17 17 17 17 17 17 17 16 16 17 17 17 20 21 27 31 31 28 28 26 18 20 23 24 25 25 19 20 20 17 15 13 14 25 31 29 28 16 14 15
4 5 6 6 6 8 9 10 12 8 6 6 7 7 8 10 11 12 13 14 13 15 17 16 16 14 14 13 15 14 14 13 12 13 14 14 15 14 15 16 14 15 16 16 17 17 17 16 17 17 17 18 17 15 14 14 14 13 13 12 14 18 24 24 19 16 19 18 20 20 13 16 15 20 21 18 17 17 15 18 17 16 14 14 14
5 6 5 5 6 8 10 11 11 10 8 8 7 8 10 11 11 12 13 14 15 14 15 16 16 15 15 14 14 18 17 14 14 13 14 15 14 14 16 15 15 15 15 17 16 17 17 16 17 17 17 17 17 16 14 13 13 12 11 10 9 9 10 10 12 12 12 13 13 13 15 13 12 13 14 12 12 11 12 12 13 13 12 12 14
6 5 5 6 7 8 9 11 12 10 9 8 8 9 9 11 12 11 13 14 15 17 16 17 17 16 15 14 13 12 13 15 15 15 15 13 14 16 16 18 16 13 16 16 16 17 18 17 18 18 18 18 17 16 14 16 18 22 20 15 10 8 8 9 12 17 11 9 9 10 9 11 11 12 12 12 11 11 11 12 13 12 11 11 11
5 5 6 7 7 8 11 12 11 9 9 10 10 10 11 10 11 11 12 13 15 16 17 16 14 14 14 13 12 14 13 15 15 16 14 16 19 25 22 17 18 24 31 33 29 21 20 17 19 18 17 19 19 17 24 31 32 32 32 32 27 25 21 16 16 19 14 10 11 9 9 11 12 12 12 12 10 10 11 11 11 13 11 10 12
6 7 7 6 8 9 11 12 11 9 9 10 11 11 11 11 11 11 12 13 14 15 15 15 14 12 13 14 15 15 15 15 15 16 18 16 15 16 22 29 29 30 31 33 32 35 36 35 26 21 21 35 38 38 38 36 36 34 34 35 35 34 31 25 23 15 11 12 9 7 11 11 12 11 10 13 13 12 12 11 11 10 10 11 13
Wind_Direction
28 27 26 23 19 16 15 15 15 19 18 14 12 5 359 352 341 314 302 241 218 205 203 201 201 205 211 213 215 206 207 205 205 207 208 207 195 190 176 176 178 178 180 180 190 192 195 195 188 170 176 186 188 190 190 185 178 176 164 166 161 147 158 152 146 140 135 130 134 137 133 135 131 162 150 150 154 158 157 156 143 153 136 142 140
31 28 23 23 20 17 18 17 16 17 16 17 17 11 10 4 4 348 336 296 252 240 227 215 218 217 211 215 213 212 202 203 214 212 215 212 201 184 176 171 172 175 177 185 190 196 195 199 194 174 179 192 196 192 189 180 178 181 162 156 179 169 162 165 158 147 172 167 158 160 159 153 160 170 177 161 168 169 166 157 159 154 151 145 143
31 27 24 23 22 22 21 20 21 18 12 18 16 18 19 13 7 359 353 342 317 278 256 238 235 239 237 243 217 210 207 202 202 204 195 202 185 175 181 177 177 174 175 183 188 194 199 202 195 176 182 193 189 188 187 184 182 183 177 173 167 189 160 171 170 181 159 162 151 142 178 162 168 204 193 188 182 171 166 156 158 147 154 166 161
24 19 16 18 27 26 25 21 19 17 17 19 19 18 19 17 13 6 2 359 343 332 306 303 297 272 246 336 38 269 45 130 154 146 151 166 178 172 181 187 190 188 185 185 187 194 199 202 194 182 183 192 193 192 191 190 185 189 187 190 174 165 177 181 187 194 177 153 170 197 167 180 184 208 186 188 182 174 174 168 166 166 165 171 174
25 18 16 18 24 26 23 20 19 22 21 21 20 20 16 15 13 14 19 18 7 356 342 316 349 93 131 100 104 98 62 161 168 209 199 198 202 192 194 188 191 192 189 189 190 198 200 206 201 187 180 190 194 202 200 195 192 196 192 192 189 177 176 164 189 201 212 194 159 156 146 206 221 147 153 169 172 176 187 177 170 177 174 183 179
30 22 14 21 30 27 25 22 22 21 22 19 20 21 21 19 17 18 22 28 16 7 355 330 318 303 267 246 234 234 247 230 234 236 217 210 214 213 198 193 193 195 195 195 196 195 197 201 201 192 187 189 195 205 205 193 195 197 195 199 198 202 176 153 178 208 220 231 276 299 63 172 175 139 151 177 172 195 180 188 176 187 183 183 182
40 28 19 28 33 32 30 26 22 23 19 16 20 22 23 24 22 20 22 21 15 8 12 354 338 324 319 319 324 316 311 301 302 290 265 242 210 203 198 195 201 202 206 206 201 198 199 200 200 197 193 194 198 206 209 203 195 198 192 204 201 198 182 183 184 182 196 260 241 213 213 180 220 141 189 112 172 190 194 185 188 188 187 195 185
37 32 26 34 41 38 34 28 27 23 17 18 21 20 24 24 24 24 25 22 18 10 10 10 350 352 343 347 337 327 323 322 335 335 326 295 223 210 204 203 201 209 212 211 209 204 203 204 203 200 200 197 196 205 208 204 192 195 200 206 207 206 198 196 185 179 182 207 201 197 210 248 268 259 191 167 155 160 190 190 198 187 196 200 195
37 31 27 34 38 37 33 32 27 24 23 22 21 20 23 25 26 26 27 26 21 18 15 13 5 348 352 8 4 349 336 328 323 328 310 289 247 223 218 221 210 212 217 217 214 213 208 211 210 208 205 205 201 204 204 203 199 190 193 199 208 207 207 206 193 192 196 197 163 207 201 211 229 223 236 219 176 152 173 177 182 175 202 208 198
39 32 30 37 38 36 32 32 29 26 23 23 25 26 25 25 28 29 28 25 22 23 20 18 12 2 13 22 10 355 344 336 334 327 320 308 277 253 240 232 225 213 218 222 220 219 216 211 214 214 212 211 210 208 207 208 203 201 199 204 211 215 212 212 208 199 201 202 194 179 190 196 209 221 228 217 226 184 166 184 175 170 189 205 183
42 35 38 42 40 36 30 32 29 26 24 24 25 26 26 28 27 31 28 27 25 25 23 21 18 19 25 24 14 360 351 340 331 327 321 317 303 293 267 251 234 225 212 218 222 221 223 222 219 219 219 215 212 210 208 208 202 199 197 203 210 213 213 215 216 209 202 208 200 201 198 194 196 197 198 203 200 196 143 166 167 187 186 168 191
42 39 39 36 35 34 31 31 27 26 25 24 23 25 27 27 28 31 29 27 27 27 26 26 24 28 29 23 15 8 358 351 341 332 330 324 317 306 300 278 257 239 220 224 221 221 221 226 225 226 223 221 219 214 209 211 211 205 199 202 209 214 220 220 219 216 202 208 211 206 210 210 215 216 208 199 200 207 193 163 169 165 182 185 159
43 40 39 33 32 28 28 27 25 26 26 24 24 24 25 26 28 30 30 26 26 25 26 26 27 26 25 24 20 9 1 354 341 336 334 326 325 321 314 303 293 265 244 227 225 217 217 222 224 223 225 224 225 223 218 215 216 212 212 210 212 212 214 216 217 216 207 207 208 211 210 211 218 221 216 207 212 211 197 142 152 162 167 157 160
45 42 39 36 30 27 27 25 25 24 26 26 25 27 27 28 25 28 26 24 24 26 26 26 28 27 25 23 17 10 7 357 348 343 339 333 329 325 320 314 309 299 287 259 241 216 215 224 228 229 230 230 225 225 222 219 218 221 215 214 216 218 219 220 223 222 221 219 211 211 212 213 216 215 219 208 206 202 203 155 144 169 132 145 149
45 44 39 37 32 29 27 28 26 25 23 24 25 25 24 26 27 27 25 21 22 23 23 25 25 24 24 23 22 14 5 358 353 348 336 332 329 323 317 314 308 305 299 297 271 232 221 224 227 232 231 233 230 225 222 221 218 221 221 218 220 219 223 222 224 220 221 219 218 213 213 216 215 213 219 219 201 206 196 159 152 150 138 143 172
48 45 43 39 37 32 30 26 26 25 25 24 23 22 23 22 23 26 26 22 21 20 23 22 22 23 25 25 22 18 11 4 357 355 344 335 328 320 312 308 307 307 303 300 292 247 225 229 231 232 234 232 231 229 223 222 217 223 227 224 224 217 222 223 227 223 224 221 220 221 217 218 215 214 213 214 207 202 201 160 172 168 160 174 180
49 46 43 40 36 34 32 30 25 23 22 24 22 20 20 19 19 20 20 21 20 18 18 19 17 19 21 22 20 20 17 10 1 355 350 345 340 331 322 317 310 301 300 300 291 252 237 231 237 235 233 233 232 228 226 228 229 229 229 227 229 221 221 224 223 224 226 222 225 220 220 218 216 216 217 218 216 211 209 174 184 184 180 176 177
48 48 44 42 40 35 32 31 30 26 23 23 24 23 22 21 17 19 17 18 16 15 14 13 12 13 14 14 13 12 10 7 4 359 354 350 345 338 329 321 316 309 300 293 278 257 244 225 231 236 240 235 234 234 230 228 226 229 228 230 231 223 225 229 225 226 227 224 227 226 224 226 218 213 216 213 215 216 213 196 193 200 191 194 183
40 35 31 27 28 26 23 26 23 24 23 22 22 24 24 24 21 21 19 17 15 13 10 10 13 13 11 11 11 10 7 2 354 356 357 356 350 341 331 319 311 309 306 300 283 274 264 242 225 232 236 238 237 236 233 231 223 228 225 229 226 227 230 229 227 223 226 224 227 228 225 228 221 218 215 211 214 215 216 211 202 202 208 211 190
43 42 35 21 19 15 12 11 10 11 12 13 15 17 19 18 20 20 20 19 16 15 12 14 14 11 10 10 9 9 5 3 1 0 356 358 356 353 347 337 331 320 312 305 296 287 283 276 258 240 236 237 237 235 234 232 228 229 228 226 222 219 229 233 232 225 227 225 229 229 227 225 221 219 217 211 209 212 212 212 211 207 210 212 192
54 48 38 33 22 22 22 11 5 6 3 5 9 13 10 7 8 10 14 11 16 13 10 10 7 4 11 13 7 7 4 2 359 2 360 356 353 351 351 342 331 339 335 325 313 306 300 285 272 256 240 241 242 239 232 234 234 234 231 230 229 223 225 230 231 231 226 228 230 232 231 228 222 220 219 213 211 209 209 215 212 212 214 208 196
58 45 38 32 25 20 28 22 21 28 18 15 18 20 12 9 1 353 356 2 2 2 359 355 354 357 4 12 11 11 4 356 0 353 355 349 350 353 347 343 346 340 342 335 331 320 310 306 291 270 257 244 242 242 239 235 234 238 237 230 232 232 232 231 227 231 227 225 229 232 233 229 221 224 221 217 211 206 205 208 211 207 211 209 209
42 37 27 23 21 15 15 21 23 26 20 12 25 30 15 8 7 350 359 358 355 337 334 331 341 351 358 358 2 2 360 3 358 353 354 346 340 340 347 348 349 346 347 344 332 325 317 311 304 296 279 266 256 247 242 240 239 237 239 236 233 232 234 236 233 232 227 224 227 232 234 229 221 223 222 219 208 208 205 209 211 204 211 210 207
34 37 21 24 32 8 15 28 21 15 18 10 14 26 11 350 346 343 342 347 348 344 335 329 334 342 337 349 357 350 355 357 357 350 344 346 343 343 339 348 352 346 345 342 337 331 320 309 305 300 293 284 274 264 256 246 244 244 243 242 239 235 234 235 237 237 233 228 229 233 232 224 219 223 222 217 212 208 205 207 209 207 210 208 201
5 357 359 3 7 7 9 11 4 7 11 6 10 8 7 358 354 351 340 344 341 330 336 332 334 339 339 342 341 345 356 355 346 341 340 338 339 341 345 349 350 347 343 337 332 331 328 321 310 303 299 290 281 275 268 260 253 248 246 246 244 242 240 240 240 240 236 232 234 235 234 220 218 224 225 218 215 209 205 203 206 207 206 203 195
304 326 344 353 355 355 360 360 359 357 357 354 357 359 357 356 353 351 345 343 344 341 338 340 337 339 336 337 340 336 334 340 345 344 336 333 334 336 334 335 345 340 336 337 331 329 326 321 313 306 299 294 289 284 276 270 265 259 252 249 250 248 248 247 244 241 238 235 238 239 236 222 221 223 224 219 216 211 206 202 206 205 200 193 196
228 233 250 260 284 318 323 334 338 340 346 347 348 349 348 347 343 343 343 342 342 341 340 339 338 335 334 335 336 333 329 329 334 335 333 331 332 334 333 329 329 329 328 326 327 321 315 309 305 304 299 294 293 288 283 276 272 267 260 257 256 253 251 250 250 248 242 240 239 240 238 228 228 228 228 221 216 214 208 207 206 203 195 191 194
220 228 232 250 259 267 275 287 306 312 324 325 330 330 330 329 329 326 328 330 333 335 333 331 330 328 326 330 330 329 327 325 329 330 330 331 331 328 323 318 320 318 319 321 323 320 314 307 298 297 293 293 288 286 280 276 274 267 263 262 258 256 255 253 253 251 246 241 239 239 237 232 230 231 228 227 219 216 211 214 210 201 195 193 194
221 230 230 245 251 259 270 275 284 296 299 308 309 306 303 305 308 312 314 320 325 327 327 326 325 324 325 326 325 321 315 321 325 324 322 324 326 324 319 314 310 304 298 296 300 305 310 310 301 292 292 289 286 280 280 276 278 272 265 263 261 257 255 258 257 254 248 246 245 243 239 235 234 235 232 228 222 217 210 214 213 201 201 197 198
227 234 237 249 256 268 274 279 286 288 298 300 301 300 301 298 295 297 302 308 317 315 314 313 313 312 316 319 321 319 319 320 317 317 322 322 322 318 314 310 303 298 296 298 295 292 293 297 301 301 295 289 280 273 267 270 266 266 269 266 263 260 258 257 257 258 256 248 246 246 243 237 234 234 232 230 228 223 220 218 214 199 200 201 200
236 236 250 261 265 274 281 288 293 296 293 294 290 294 293 289 290 295 298 299 301 299 301 304 307 308 311 314 316 317 319 318 315 313 306 303 306 308 309 308 306 301 298 293 281 278 282 285 292 292 290 286 278 270 265 265 264 264 264 264 264 264 259 258 257 256 256 253 249 245 245 241 236 234 233 230 230 229 227 225 222 211 206 202 197
249 255 260 264 274 278 286 291 294 293 291 288 287 285 282 285 289 291 291 292 285 284 291 295 299 305 309 311 312 313 311 307 311 309 310 312 309 311 310 307 302 298 298 296 292 285 275 270 278 281 284 281 277 270 272 273 273 267 264 263 261 261 260 258 258 255 255 253 251 248 244 240 234 234 233 230 230 230 229 228 225 221 218 216 212
255 259 264 267 273 279 281 288 288 287 286 282 286 286 286 289 293 294 299 294 292 294 296 297 300 301 302 302 304 306 306 303 298 298 302 305 306 306 303 301 302 300 293 291 291 290 287 282 273 262 265 273 280 278 272 276 277 272 263 261 263 258 255 256 256 255 255 254 251 249 250 241 237 230 228 227 228 228 229 229 228 225 224 220 221
261 263 267 271 274 281 288 292 290 287 289 295 290 288 288 295 299 301 300 298 295 294 293 294 296 294 296 297 296 294 294 296 298 301 297 297 301 300 303 305 299 300 294 288 285 285 287 288 282 282 279 273 265 264 271 272 274 273 269 261 254 257 256 255 254 252 252 254 252 253 252 250 242 229 224 227 227 227 225 222 223 224 226 226 225
274 276 278 279 284 288 290 291 294 302 303 297 296 298 305 306 309 307 303 298 295 292 291 291 294 294 295 292 288 288 288 288 289 291 295 294 296 294 298 299 299 299 298 294 291 288 283 282 281 282 284 283 276 264 259 262 268 271 269 268 258 256 254 253 254 253 251 251 251 253 253 254 251 236 227 225 222 220 218 217 217 219 223 222 218
270 278 283 286 288 290 290 291 298 298 295 298 300 307 311 309 311 308 303 300 298 296 292 294 295 295 293 290 291 290 288 289 284 282 287 288 291 293 296 294 294 292 289 290 285 281 284 285 282 280 280 280 281 275 266 254 256 265 271 269 260 257 255 253 252 252 252 250 250 247 250 252 251 250 238 222 217 213 211 212 216 220 221 221 222
272 277 283 290 293 289 291 295 294 297 306 306 310 317 317 315 314 310 311 306 303 298 297 298 298 298 296 292 290 290 293 292 291 287 285 287 291 290 289 290 290 288 285 285 285 283 283 283 285 283 278 277 277 274 272 264 261 260 258 261 263 261 256 254 252 251 249 250 249 247 245 248 247 248 241 204 203 185 209 209 217 220 219 219 225
274 280 285 291 294 297 301 309 311 310 314 320 322 322 319 315 314 315 311 306 304 299 299 299 296 295 294 296 299 298 294 291 290 286 289 293 294 291 288 284 278 280 282 285 283 279 278 279 280 280 280 283 281 276 270 264 261 260 256 255 254 255 258 259 259 252 250 248 245 243 242 244 247 246 238 191 201 194 209 211 215 217 217 218 224
282 290 293 295 317 320 313 309 309 314 324 329 327 327 327 320 316 313 308 304 302 300 302 302 302 301 301 299 298 295 293 294 292 290 290 290 289 288 284 285 284 279 277 279 275 273 273 274 274 275 282 282 280 279 276 270 265 258 251 249 251 250 250 250 255 257 251 248 249 243 237 237 241 245 221 192 199 191 209 209 213 213 217 221 212
293 295 324 14 328 313 308 315 321 321 326 335 344 335 322 315 309 309 306 303 304 307 308 307 303 301 301 300 298 296 293 293 292 293 292 289 287 287 281 277 274 277 280 277 274 272 272 273 271 274 276 279 281 280 277 273 265 260 251 245 246 247 248 250 246 249 252 249 248 247 241 235 234 234 217 204 202 195 204 211 212 214 217 224 193
293 319 31 324 317 312 313 320 322 330 346 348 346 329 314 314 310 308 304 307 311 311 309 305 303 300 297 296 299 298 297 296 294 294 291 287 285 280 281 281 281 276 272 270 271 271 273 274 271 269 274 274 271 272 272 270 266 259 252 240 242 241 245 248 252 248 244 248 247 246 247 235 230 226 213 209 205 201 202 210 211 219 218 217 171
331 16 344 314 311 315 312 317 333 357 349 341 334 316 311 313 311 307 312 316 314 309 305 301 299 299 301 301 300 296 293 290 290 290 289 286 283 282 282 281 280 276 274 273 272 274 272 273 272 269 269 267 266 265 265 267 265 260 253 242 240 242 238 246 247 247 247 247 244 246 246 237 222 215 216 210 208 208 202 204 216 218 213 192 180
333 325 333 341 321 317 315 322 338 339 335 328 330 312 309 309 303 311 317 313 309 306 305 303 301 299 299 297 297 295 294 295 291 290 288 287 290 287 284 281 280 278 275 273 273 273 271 267 265 266 265 265 266 264 261 262 262 259 253 246 241 240 241 240 241 246 244 244 244 244 243 235 214 211 212 210 209 211 213 212 213 214 203 187 181
324 331 1 24 330 321 316 314 325 324 327 332 332 311 306 308 305 316 310 308 305 304 302 299 297 293 293 292 293 293 292 293 291 293 290 285 285 285 284 281 278 276 275 274 273 271 268 267 268 268 266 266 269 269 265 262 259 257 256 246 243 242 238 236 235 242 243 243 244 240 237 234 222 213 211 209 211 212 213 219 219 213 197 185 183
328 355 39 14 343 320 314 307 315 330 327 332 332 320 317 305 305 312 308 307 305 303 302 296 296 295 293 293 291 289 288 288 287 288 287 286 286 287 285 283 280 278 275 274 273 273 270 271 272 272 273 274 272 273 270 266 263 259 258 251 247 240 238 238 238 239 240 242 240 239 236 227 212 209 211 212 214 215 215 214 216 216 201 184 190
13 358 24 357 329 314 307 305 310 336 326 332 335 329 306 300 311 310 305 306 305 303 299 294 293 292 289 291 292 289 285 282 281 280 279 280 284 288 286 285 283 279 277 276 276 275 274 274 274 275 276 275 275 276 276 272 269 265 260 257 256 252 245 240 237 237 238 239 241 243 241 219 202 204 209 212 216 216 222 224 221 214 203 195 191
357 354 4 334 326 311 305 308 305 321 329 324 322 306 295 299 303 302 302 301 299 297 294 292 293 293 292 291 290 289 290 288 285 287 284 285 285 283 281 283 281 281 280 279 279 278 278 277 278 280 280 279 276 274 270 269 268 267 263 256 254 255 249 245 242 242 245 246 246 244 227 214 210 205 206 210 215 215 213 219 221 218 206 197 193
350 334 337 314 303 299 304 306 303 313 317 310 304 302 302 299 297 301 301 299 296 295 293 294 294 295 293 292 289 289 289 291 292 290 289 287 283 280 281 279 281 280 280 280 278 277 278 280 282 282 283 283 280 280 277 281 285 279 274 267 256 243 240 236 240 239 240 241 239 237 227 212 202 203 211 210 215 211 208 210 212 215 207 196 196
324 320 321 307 306 301 297 300 298 305 303 299 296 294 296 294 294 298 299 298 297 297 294 293 294 294 291 289 287 289 294 294 291 288 280 276 283 284 279 279 270 267 269 272 272 271 271 273 274 276 280 281 279 278 278 279 276 276 280 284 276 257 239 242 243 244 243 237 234 228 210 208 197 201 205 209 208 205 205 207 208 211 203 189 182
311 309 305 298 296 299 300 297 294 297 294 296 292 295 293 290 296 297 296 295 297 298 296 294 293 292 291 293 295 296 294 289 287 286 285 283 272 276 279 279 282 278 277 276 276 275 275 270 272 267 263 270 273 274 277 279 280 282 283 280 277 272 266 261 256 253 246 241 232 219 202 202 200 197 201 204 198 190 195 198 205 206 198 184 181
310 304 297 299 305 305 297 292 291 296 295 295 296 296 293 292 291 294 295 294 296 297 296 295 295 293 294 297 296 292 288 286 285 286 286 285 289 281 278 280 280 283 283 282 280 279 279 278 276 278 274 273 276 278 278 276 274 271 271 274 276 276 275 270 265 260 251 242 227 204 211 206 204 199 192 200 196 197 195 195 197 194 192 185 182